| time (UTC) | temp C | wind direction | speed KPH | gust KPH | rain 1hr cm | rain 24hr cm | rain mn cm | humidity % | barometer mb |
| 20260902124332 | 20 | 312 | 0.0 | 1.6 | 0.00 | 0.00 | 0.00 | 98 | 1011.5 |
| 20260902123834 | 20 | 312 | 0.0 | 3.2 | 0.00 | 0.00 | 0.00 | 98 | 1011.3 |
| 20260902123557 | 20 | 27 | 1.6 | 3.2 | 0.00 | 0.00 | 0.00 | 98 | 1011.2 |
| 20260902122827 | 20 | 34 | 0.0 | 3.2 | 0.00 | 0.00 | 0.00 | 98 | 1011.2 |
| 20260902122327 | 20 | 52 | 1.6 | 3.2 | 0.00 | 0.00 | 0.00 | 98 | 1011.3 |
| 20260902121827 | 20 | 290 | 0.0 | 1.6 | 0.00 | 0.00 | 0.00 | 98 | 1011.3 |
| 20260902120827 | 20 | 316 | 0.0 | 0.0 | 0.00 | 0.00 | 0.00 | 98 | 1011.1 |
| 20260902120328 | 20 | 316 | 0.0 | 1.6 | 0.00 | 0.00 | 0.00 | 98 | 1010.9 |
| 20260902115827 | 20 | 316 | 0.0 | 4.8 | 0.00 | 0.00 | 0.00 | 98 | 1010.8 |
| 20260902115324 | 20 | 324 | 0.0 | 4.8 | 0.00 | 0.00 | 0.00 | 98 | 1010.6 |
| 20260902115054 | 20 | 306 | 0.0 | 4.8 | 0.00 | 0.00 | 0.00 | 97 | 1010.7 |
| 20260902113824 | 20 | 19 | 0.0 | 3.2 | 0.00 | 0.00 | 0.00 | 98 | 1010.6 |
| 20260902113325 | 20 | 19 | 0.0 | 1.6 | 0.00 | 0.00 | 0.00 | 97 | 1010.5 |
| 20260902112824 | 20 | 345 | 0.0 | 0.0 | 0.00 | 0.00 | 0.00 | 97 | 1010.5 |
| 20260902112324 | 20 | 345 | 0.0 | 0.0 | 0.00 | 0.00 | 0.00 | 97 | 1010.4 |
| 20260902111824 | 20 | 345 | 0.0 | 0.0 | 0.00 | 0.00 | 0.00 | 97 | 1010.4 |
| 20260902111323 | 21 | 345 | 0.0 | 0.0 | 0.00 | 0.00 | 0.00 | 98 | 1010.3 |
| 20260902110822 | 21 | 345 | 0.0 | 0.0 | 0.00 | 0.00 | 0.00 | 98 | 1010.3 |
| 20260902110319 | 21 | 345 | 0.0 | 0.0 | 0.00 | 0.00 | 0.00 | 98 | 1010.3 |
| 20260902105821 | 21 | 309 | 0.0 | 1.6 | 0.00 | 0.00 | 0.00 | 98 | 1010.4 |
| 20260902105321 | 21 | 309 | 0.0 | 3.2 | 0.00 | 0.00 | 0.00 | 98 | 1010.4 |
| 20260902104818 | 21 | 274 | 0.0 | 4.8 | 0.00 | 0.00 | 0.00 | 98 | 1010.6 |
| 20260902104318 | 21 | 265 | 0.0 | 4.8 | 0.00 | 0.00 | 0.00 | 98 | 1010.6 |
| 20260902104050 | 21 | 299 | 0.0 | 4.8 | 0.00 | 0.00 | 0.00 | 98 | 1010.4 |
| 20260902103319 | 21 | 320 | 0.0 | 4.8 | 0.00 | 0.00 | 0.00 | 98 | 1010.5 |
| 20260902102815 | 21 | 312 | 0.0 | 4.8 | 0.00 | 0.00 | 0.00 | 98 | 1010.5 |
| 20260902102540 | 21 | 293 | 1.6 | 8.0 | 0.00 | 0.00 | 0.00 | 98 | 1010.5 |
| 20260902101814 | 21 | 300 | 1.6 | 8.0 | 0.00 | 0.00 | 0.00 | 98 | 1010.5 |
| 20260902101316 | 21 | 309 | 0.0 | 8.0 | 0.00 | 0.00 | 0.00 | 98 | 1010.4 |
| 20260902100814 | 21 | 306 | 0.0 | 6.4 | 0.00 | 0.00 | 0.00 | 98 | 1010.4 |
| 20260902100313 | 21 | 343 | 1.6 | 6.4 | 0.00 | 0.00 | 0.00 | 98 | 1010.4 |
| 20260902095814 | 21 | 269 | 1.6 | 4.8 | 0.00 | 0.00 | 0.00 | 98 | 1010.4 |
| 20260902095308 | 21 | 267 | 1.6 | 6.4 | 0.00 | 0.00 | 0.00 | 97 | 1010.3 |
| 20260902095037 | 21 | 265 | 1.6 | 6.4 | 0.00 | 0.00 | 0.00 | 97 | 1010.3 |
| 20260902094307 | 21 | 279 | 4.8 | 8.0 | 0.00 | 0.00 | 0.00 | 97 | 1010.4 |
| 20260902093809 | 21 | 289 | 4.8 | 8.0 | 0.00 | 0.00 | 0.00 | 98 | 1010.3 |
| 20260902093532 | 21 | 257 | 3.2 | 6.4 | 0.00 | 0.00 | 0.00 | 97 | 1010.1 |
| 20260902092804 | 20 | 265 | 3.2 | 6.4 | 0.00 | 0.00 | 0.00 | 97 | 1010.2 |
| 20260902092305 | 20 | 250 | 3.2 | 4.8 | 0.00 | 0.00 | 0.00 | 97 | 1010.1 |
| 20260902091804 | 20 | 258 | 1.6 | 4.8 | 0.00 | 0.00 | 0.00 | 97 | 1010.1 |
| 20260902091304 | 20 | 259 | 3.2 | 4.8 | 0.00 | 0.00 | 0.00 | 97 | 1010.2 |
| 20260902090804 | 20 | 259 | 1.6 | 4.8 | 0.00 | 0.00 | 0.00 | 97 | 1010.2 |
| 20260902090305 | 20 | 261 | 3.2 | 4.8 | 0.00 | 0.00 | 0.00 | 97 | 1010.0 |
| 20260902085804 | 20 | 261 | 3.2 | 4.8 | 0.00 | 0.00 | 0.00 | 97 | 1010.1 |
| 20260902085308 | 20 | 230 | 1.6 | 1.6 | 0.00 | 0.00 | 0.00 | 97 | 1010.1 |
| 20260902084803 | 20 | 231 | 0.0 | 0.0 | 0.00 | 0.00 | 0.00 | 97 | 1010.1 |
| 20260902084301 | 20 | 353 | 0.0 | 0.0 | 0.00 | 0.00 | 0.00 | 97 | 1010.1 |
| 20260902084028 | 20 | 353 | 0.0 | 0.0 | 0.00 | 0.00 | 0.00 | 97 | 1010.0 |
| 20260902083528 | 21 | 310 | 0.0 | 3.2 | 0.00 | 0.00 | 0.00 | 97 | 1010.1 |
| 20260902083034 | 21 | 310 | 0.0 | 3.2 | 0.00 | 0.00 | 0.00 | 97 | 1010.0 |
| 20260902082259 | 20 | 313 | 0.0 | 1.6 | 0.00 | 0.00 | 0.00 | 97 | 1010.1 |
| 20260902081757 | 20 | 310 | 0.0 | 3.2 | 0.00 | 0.00 | 0.00 | 97 | 1010.0 |
| 20260902081258 | 20 | 309 | 0.0 | 3.2 | 0.00 | 0.00 | 0.00 | 97 | 1010.1 |
| 20260902080757 | 20 | 25 | 0.0 | 4.8 | 0.00 | 0.00 | 0.00 | 96 | 1010.1 |
| 20260902080523 | 20 | 27 | 3.2 | 4.8 | 0.00 | 0.00 | 0.00 | 96 | 1010.1 |
| 20260902075756 | 20 | 316 | 0.0 | 0.0 | 0.00 | 0.00 | 0.00 | 96 | 1010.0 |
| 20260902075255 | 21 | 27 | 0.0 | 0.0 | 0.00 | 0.00 | 0.00 | 96 | 1009.9 |
| 20260902074754 | 21 | 27 | 0.0 | 0.0 | 0.00 | 0.00 | 0.00 | 96 | 1009.9 |
| 20260902074255 | 21 | 25 | 0.0 | 0.0 | 0.00 | 0.00 | 0.00 | 96 | 1009.9 |
| 20260902073754 | 21 | 25 | 0.0 | 4.8 | 0.00 | 0.00 | 0.00 | 96 | 1010.0 |
| 20260902073254 | 21 | 25 | 3.2 | 4.8 | 0.00 | 0.00 | 0.00 | 96 | 1010.0 |
| 20260902072752 | 21 | 15 | 0.0 | 3.2 | 0.00 | 0.00 | 0.00 | 96 | 1010.0 |
| 20260902072253 | 21 | 15 | 0.0 | 8.0 | 0.00 | 0.00 | 0.00 | 96 | 1010.1 |
| 20260902071753 | 21 | 329 | 1.6 | 11.3 | 0.00 | 0.00 | 0.00 | 96 | 1010.0 |
| 20260902071253 | 21 | 254 | 8.0 | 11.3 | 0.00 | 0.00 | 0.00 | 96 | 1009.9 |
| 20260902070748 | 21 | 262 | 6.4 | 9.7 | 0.00 | 0.00 | 0.00 | 96 | 1009.9 |
| 20260902070248 | 21 | 261 | 6.4 | 16.1 | 0.00 | 0.00 | 0.00 | 96 | 1009.7 |
| 20260902065748 | 21 | 268 | 6.4 | 16.1 | 0.00 | 0.00 | 0.00 | 96 | 1009.6 |
| 20260902065516 | 21 | 255 | 6.4 | 11.3 | 0.00 | 0.00 | 0.00 | 96 | 1009.5 |
| 20260902064747 | 21 | 255 | 6.4 | 8.0 | 0.00 | 0.00 | 0.00 | 96 | 1009.5 |
| 20260902064246 | 21 | 259 | 4.8 | 8.0 | 0.00 | 0.00 | 0.00 | 96 | 1009.4 |
| 20260902063745 | 21 | 254 | 4.8 | 8.0 | 0.00 | 0.00 | 0.00 | 96 | 1009.4 |
| 20260902063244 | 21 | 247 | 4.8 | 8.0 | 0.00 | 0.00 | 0.00 | 96 | 1009.4 |
| 20260902063016 | 21 | 227 | 4.8 | 8.0 | 0.00 | 0.00 | 0.00 | 96 | 1009.2 |
| 20260902061743 | 21 | 223 | 6.4 | 11.3 | 0.00 | 0.00 | 0.00 | 96 | 1009.4 |
| 20260902061242 | 21 | 233 | 3.2 | 9.7 | 0.00 | 0.00 | 0.00 | 96 | 1009.4 |
| 20260902060742 | 21 | 216 | 3.2 | 9.7 | 0.00 | 0.00 | 0.00 | 96 | 1009.6 |
| 20260902060244 | 21 | 244 | 4.8 | 9.7 | 0.00 | 0.00 | 0.00 | 96 | 1009.7 |
| 20260902055740 | 21 | 250 | 4.8 | 8.0 | 0.00 | 0.00 | 0.00 | 96 | 1009.7 |
| 20260902055238 | 21 | 221 | 3.2 | 8.0 | 0.00 | 0.00 | 0.00 | 95 | 1009.7 |
| 20260902054739 | 21 | 241 | 3.2 | 8.0 | 0.00 | 0.00 | 0.00 | 95 | 1009.7 |
| 20260902054240 | 21 | 216 | 3.2 | 8.0 | 0.00 | 0.00 | 0.00 | 95 | 1009.8 |
| 20260902053239 | 21 | 209 | 3.2 | 6.4 | 0.00 | 0.00 | 0.00 | 95 | 1009.8 |
| 20260902052738 | 21 | 219 | 3.2 | 8.0 | 0.00 | 0.00 | 0.00 | 95 | 1009.8 |
| 20260902052237 | 21 | 221 | 3.2 | 8.0 | 0.00 | 0.00 | 0.00 | 95 | 1009.9 |
| 20260902051734 | 21 | 221 | 3.2 | 8.0 | 0.00 | 0.00 | 0.00 | 94 | 1010.0 |
| 20260902051234 | 21 | 236 | 4.8 | 8.0 | 0.00 | 0.00 | 0.00 | 94 | 1010.1 |
| 20260902050734 | 21 | 221 | 3.2 | 9.7 | 0.00 | 0.00 | 0.00 | 94 | 1010.2 |
| 20260902050233 | 21 | 226 | 4.8 | 9.7 | 0.00 | 0.00 | 0.00 | 94 | 1010.2 |
| 20260902045731 | 21 | 217 | 3.2 | 9.7 | 0.00 | 0.00 | 0.00 | 94 | 1010.2 |
| 20260902045231 | 21 | 237 | 3.2 | 8.0 | 0.00 | 0.00 | 0.00 | 94 | 1010.2 |
| 20260902044734 | 21 | 230 | 4.8 | 8.0 | 0.00 | 0.00 | 0.00 | 93 | 1010.2 |
| 20260902044231 | 21 | 223 | 3.2 | 8.0 | 0.00 | 0.00 | 0.00 | 93 | 1010.2 |
| 20260902043731 | 21 | 252 | 4.8 | 8.0 | 0.00 | 0.00 | 0.00 | 93 | 1010.3 |
| 20260902043231 | 21 | 238 | 3.2 | 8.0 | 0.00 | 0.00 | 0.00 | 92 | 1010.1 |
| 20260902042231 | 21 | 254 | 4.8 | 11.3 | 0.00 | 0.00 | 0.00 | 92 | 1010.3 |
| 20260902041731 | 21 | 276 | 8.0 | 11.3 | 0.00 | 0.00 | 0.00 | 92 | 1010.3 |
| 20260902041231 | 21 | 248 | 6.4 | 11.3 | 0.00 | 0.00 | 0.00 | 92 | 1010.3 |
| 20260902040732 | 21 | 251 | 4.8 | 11.3 | 0.00 | 0.00 | 0.00 | 92 | 1010.3 |
| 20260902040234 | 21 | 245 | 6.4 | 14.5 | 0.00 | 0.00 | 0.00 | 92 | 1010.2 |
| 20260902035731 | 21 | 245 | 6.4 | 14.5 | 0.00 | 0.00 | 0.00 | 92 | 1010.2 |
| 20260902035505 | 21 | 254 | 4.8 | 16.1 | 0.00 | 0.00 | 0.00 | 92 | 1010.3 |
| 20260902034956 | 21 | 202 | 4.8 | 16.1 | 0.00 | 0.00 | 0.00 | 92 | 1010.3 |
| 20260902034508 | 21 | 233 | 4.8 | 11.3 | 0.00 | 0.00 | 0.00 | 93 | 1010.3 |
| 20260902033732 | 21 | 255 | 4.8 | 11.3 | 0.00 | 0.00 | 0.00 | 93 | 1010.2 |
| 20260902033231 | 21 | 231 | 4.8 | 11.3 | 0.00 | 0.00 | 0.00 | 93 | 1010.3 |
| 20260902032959 | 21 | 224 | 3.2 | 11.3 | 0.00 | 0.00 | 0.00 | 94 | 1010.2 |
| 20260902032234 | 21 | 214 | 6.4 | 11.3 | 0.00 | 0.00 | 0.00 | 94 | 1010.3 |
| 20260902031731 | 21 | 209 | 4.8 | 9.7 | 0.00 | 0.00 | 0.00 | 94 | 1010.3 |
| 20260902031230 | 21 | 247 | 4.8 | 14.5 | 0.00 | 0.00 | 0.00 | 94 | 1010.2 |
| 20260902030731 | 21 | 265 | 6.4 | 14.5 | 0.00 | 0.00 | 0.00 | 94 | 1010.2 |
| 20260902030231 | 21 | 254 | 6.4 | 9.7 | 0.00 | 0.00 | 0.00 | 94 | 1010.3 |
| 20260902025732 | 21 | 279 | 6.4 | 9.7 | 0.00 | 0.00 | 0.00 | 94 | 1010.4 |
| 20260902025231 | 21 | 257 | 6.4 | 9.7 | 0.00 | 0.00 | 0.00 | 94 | 1010.5 |
| 20260902024731 | 21 | 231 | 4.8 | 11.3 | 0.00 | 0.00 | 0.00 | 94 | 1010.3 |
| 20260902024231 | 21 | 250 | 6.4 | 16.1 | 0.00 | 0.00 | 0.00 | 94 | 1010.4 |
| 20260902023731 | 21 | 241 | 6.4 | 16.1 | 0.00 | 0.00 | 0.00 | 94 | 1010.3 |
| 20260902023232 | 21 | 210 | 8.0 | 16.1 | 0.00 | 0.00 | 0.00 | 94 | 1010.2 |
| 20260902022731 | 21 | 265 | 6.4 | 11.3 | 0.00 | 0.00 | 0.00 | 94 | 1010.3 |
| 20260902022230 | 21 | 158 | 4.8 | 16.1 | 0.00 | 0.00 | 0.00 | 94 | 1010.2 |
| 20260902021731 | 21 | 234 | 4.8 | 16.1 | 0.00 | 0.00 | 0.00 | 93 | 1010.3 |
| 20260902021231 | 21 | 175 | 4.8 | 16.1 | 0.00 | 0.00 | 0.00 | 93 | 1010.3 |
| 20260902020731 | 22 | 179 | 6.4 | 16.1 | 0.00 | 0.00 | 0.00 | 93 | 1010.4 |
| 20260902020231 | 22 | 214 | 4.8 | 9.7 | 0.00 | 0.00 | 0.00 | 93 | 1010.5 |
| 20260902015731 | 22 | 109 | 1.6 | 9.7 | 0.00 | 0.00 | 0.00 | 93 | 1010.5 |
| 20260902015232 | 22 | 183 | 3.2 | 11.3 | 0.00 | 0.00 | 0.00 | 92 | 1010.4 |
| 20260902014731 | 22 | 148 | 3.2 | 11.3 | 0.00 | 0.00 | 0.00 | 93 | 1010.3 |
| 20260902014231 | 22 | 157 | 6.4 | 11.3 | 0.00 | 0.00 | 0.00 | 93 | 1010.4 |
| 20260902013731 | 22 | 172 | 4.8 | 11.3 | 0.00 | 0.00 | 0.00 | 93 | 1010.5 |
| 20260902013459 | 22 | 193 | 4.8 | 9.7 | 0.00 | 0.00 | 0.00 | 92 | 1010.4 |
| 20260902012726 | 22 | 183 | 3.2 | 9.7 | 0.00 | 0.00 | 0.00 | 92 | 1010.3 |
| 20260902012226 | 22 | 162 | 1.6 | 6.4 | 0.00 | 0.00 | 0.00 | 92 | 1010.3 |
| 20260902011955 | 22 | 175 | 0.0 | 4.8 | 0.00 | 0.00 | 0.00 | 91 | 1010.3 |
| 20260902011450 | 22 | 111 | 0.0 | 4.8 | 0.00 | 0.00 | 0.00 | 91 | 1010.2 |
| 20260902010726 | 22 | 179 | 0.0 | 8.0 | 0.00 | 0.00 | 0.00 | 91 | 1010.2 |
| 20260902010228 | 22 | 186 | 3.2 | 8.0 | 0.00 | 0.00 | 0.00 | 91 | 1010.1 |
| 20260902005720 | 22 | 157 | 3.2 | 9.7 | 0.00 | 0.00 | 0.00 | 91 | 1010.0 |
| 20260902005455 | 22 | 206 | 3.2 | 9.7 | 0.00 | 0.00 | 0.00 | 91 | 1010.0 |
| 20260902004720 | 22 | 192 | 1.6 | 4.8 | 0.00 | 0.00 | 0.00 | 91 | 1010.1 |
| 20260902004220 | 23 | 178 | 1.6 | 6.4 | 0.00 | 0.00 | 0.00 | 91 | 1010.2 |
| 20260902003720 | 23 | 162 | 1.6 | 14.5 | 0.00 | 0.00 | 0.00 | 91 | 1010.3 |
| 20260902003220 | 23 | 96 | 3.2 | 14.5 | 0.00 | 0.00 | 0.00 | 91 | 1010.2 |
| 20260902002942 | 23 | 192 | 1.6 | 9.7 | 0.00 | 0.00 | 0.00 | 91 | 1010.2 |
| 20260902002218 | 23 | 151 | 3.2 | 9.7 | 0.00 | 0.00 | 0.00 | 92 | 1010.3 |
| 20260902001718 | 22 | 212 | 3.2 | 9.7 | 0.00 | 0.00 | 0.00 | 92 | 1010.4 |
| 20260902001217 | 22 | 121 | 3.2 | 16.1 | 0.00 | 0.00 | 0.00 | 93 | 1010.4 |
| 20260902000715 | 22 | 178 | 3.2 | 16.1 | 0.00 | 0.00 | 0.00 | 93 | 1010.4 |
| 20260902000213 | 22 | 195 | 6.4 | 9.7 | 0.00 | 0.00 | 0.00 | 93 | 1010.4 |
| 20260901235708 | 22 | 158 | 1.6 | 8.0 | 0.00 | 0.00 | 0.00 | 92 | 1010.4 |
| 20260901235208 | 22 | 80 | 0.0 | 4.8 | 0.00 | 0.00 | 0.00 | 92 | 1010.4 |
| 20260901234931 | 22 | 68 | 3.2 | 8.0 | 0.00 | 0.00 | 0.00 | 92 | 1010.5 |
| 20260901234207 | 22 | 58 | 4.8 | 8.0 | 0.00 | 0.00 | 0.00 | 91 | 1010.5 |
| 20260901233706 | 22 | 90 | 3.2 | 4.8 | 0.00 | 0.00 | 0.00 | 91 | 1010.5 |
| 20260901233207 | 22 | 55 | 3.2 | 4.8 | 0.00 | 0.00 | 0.00 | 91 | 1010.4 |
| 20260901232935 | 22 | 68 | 3.2 | 6.4 | 0.00 | 0.00 | 0.00 | 92 | 1010.4 |
| 20260901232208 | 22 | 62 | 3.2 | 6.4 | 0.00 | 0.00 | 0.00 | 92 | 1010.4 |
| 20260901231707 | 22 | 75 | 1.6 | 6.4 | 0.00 | 0.00 | 0.00 | 93 | 1010.4 |
| 20260901231210 | 21 | 59 | 3.2 | 8.0 | 0.00 | 0.00 | 0.00 | 93 | 1010.5 |
| 20260901230707 | 21 | 61 | 3.2 | 8.0 | 0.00 | 0.00 | 0.00 | 93 | 1010.6 |
| 20260901230209 | 21 | 82 | 3.2 | 6.4 | 0.00 | 0.00 | 0.00 | 93 | 1010.7 |
| 20260901225654 | 21 | 73 | 3.2 | 4.8 | 0.00 | 0.00 | 0.00 | 93 | 1010.8 |
| 20260901225427 | 21 | 69 | 0.0 | 4.8 | 0.00 | 0.00 | 0.00 | 93 | 1010.8 |
| 20260901224926 | 21 | 103 | 3.2 | 8.0 | 0.00 | 0.00 | 0.00 | 94 | 1010.9 |
| 20260901224154 | 21 | 76 | 4.8 | 8.0 | 0.00 | 0.00 | 0.00 | 94 | 1010.8 |
| 20260901223653 | 20 | 63 | 3.2 | 8.0 | 0.00 | 0.00 | 0.00 | 94 | 1010.8 |
| 20260901223152 | 20 | 87 | 3.2 | 11.3 | 0.00 | 0.00 | 0.00 | 94 | 1010.9 |
| 20260901222651 | 20 | 78 | 4.8 | 11.3 | 0.00 | 0.00 | 0.00 | 94 | 1011.0 |
| 20260901222419 | 20 | 73 | 6.4 | 11.3 | 0.00 | 0.00 | 0.00 | 94 | 1011.0 |
| 20260901221651 | 20 | 104 | 4.8 | 11.3 | 0.00 | 0.00 | 0.00 | 93 | 1011.0 |
| 20260901221150 | 20 | 89 | 8.0 | 17.7 | 0.00 | 0.00 | 0.00 | 93 | 1011.0 |
| 20260901220921 | 20 | 83 | 9.7 | 17.7 | 0.00 | 0.00 | 0.00 | 93 | 1011.1 |
| 20260901220150 | 20 | 116 | 6.4 | 16.1 | 0.00 | 0.00 | 0.00 | 93 | 1011.1 |
| 20260901215650 | 20 | 80 | 8.0 | 14.5 | 0.00 | 0.00 | 0.00 | 92 | 1011.1 |
| 20260901215418 | 20 | 97 | 8.0 | 14.5 | 0.00 | 0.00 | 0.00 | 92 | 1011.1 |
| 20260901214650 | 20 | 95 | 4.8 | 11.3 | 0.00 | 0.00 | 0.00 | 92 | 1011.1 |
| 20260901214416 | 20 | 76 | 8.0 | 11.3 | 0.00 | 0.00 | 0.00 | 92 | 1011.2 |
| 20260901213650 | 20 | 110 | 4.8 | 11.3 | 0.00 | 0.00 | 0.00 | 92 | 1011.2 |
| 20260901213149 | 20 | 97 | 6.4 | 16.1 | 0.00 | 0.00 | 0.00 | 92 | 1011.3 |
| 20260901212649 | 20 | 104 | 6.4 | 16.1 | 0.00 | 0.00 | 0.00 | 92 | 1011.3 |
| 20260901212149 | 20 | 90 | 8.0 | 14.5 | 0.00 | 0.00 | 0.00 | 92 | 1011.3 |
| 20260901211648 | 21 | 87 | 9.7 | 11.3 | 0.00 | 0.00 | 0.00 | 91 | 1011.3 |
| 20260901211416 | 21 | 86 | 6.4 | 11.3 | 0.00 | 0.00 | 0.00 | 91 | 1011.3 |
| 20260901210647 | 21 | 55 | 6.4 | 11.3 | 0.00 | 0.00 | 0.00 | 91 | 1011.5 |
| 20260901210152 | 21 | 85 | 6.4 | 11.3 | 0.00 | 0.00 | 0.00 | 92 | 1011.4 |
| 20260901205513 | 21 | 58 | 8.0 | 11.3 | 0.00 | 0.00 | 0.00 | 92 | 1011.4 |
| 20260901205012 | 21 | 78 | 6.4 | 11.3 | 0.00 | 0.00 | 0.00 | 93 | 1011.5 |
| 20260901204737 | 20 | 61 | 6.4 | 11.3 | 0.00 | 0.00 | 0.00 | 93 | 1011.4 |
| 20260901204008 | 20 | 103 | 3.2 | 14.5 | 0.00 | 0.00 | 0.00 | 93 | 1011.6 |
| 20260901203509 | 20 | 48 | 6.4 | 14.5 | 0.00 | 0.00 | 0.00 | 94 | 1011.6 |
| 20260901203008 | 20 | 100 | 4.8 | 11.3 | 0.00 | 0.00 | 0.00 | 94 | 1011.7 |
| 20260901202506 | 20 | 73 | 3.2 | 11.3 | 0.00 | 0.00 | 0.00 | 95 | 1011.7 |
| 20260901202004 | 20 | 154 | 6.4 | 11.3 | 0.00 | 0.00 | 0.00 | 94 | 1011.8 |
| 20260901201507 | 20 | 68 | 4.8 | 9.7 | 0.00 | 0.00 | 0.00 | 95 | 1011.9 |
| 20260901201002 | 20 | 109 | 8.0 | 9.7 | 0.00 | 0.00 | 0.00 | 94 | 1012.0 |
| 20260901200502 | 20 | 97 | 4.8 | 11.3 | 0.00 | 0.00 | 0.00 | 95 | 1012.1 |
| 20260901200255 | 20 | 83 | 4.8 | 11.3 | 0.00 | 0.00 | 0.00 | 94 | 1012.2 |
| 20260901195506 | 20 | 92 | 6.4 | 9.7 | 0.00 | 0.00 | 0.00 | 94 | 1012.2 |
| 20260901195042 | 20 | 75 | 4.8 | 9.7 | 0.00 | 0.00 | 0.00 | 94 | 1012.2 |
| 20260901194503 | 20 | 89 | 4.8 | 11.3 | 0.00 | 0.00 | 0.00 | 93 | 1012.3 |
| 20260901194000 | 20 | 62 | 6.4 | 11.3 | 0.00 | 0.00 | 0.00 | 94 | 1012.2 |
| 20260901193500 | 20 | 65 | 4.8 | 11.3 | 0.00 | 0.00 | 0.00 | 94 | 1012.1 |
| 20260901192958 | 20 | 54 | 8.0 | 11.3 | 0.00 | 0.00 | 0.00 | 93 | 1012.2 |
| 20260901192729 | 20 | 99 | 6.4 | 11.3 | 0.00 | 0.00 | 0.00 | 93 | 1012.1 |
| 20260901191954 | 20 | 95 | 4.8 | 11.3 | 0.00 | 0.00 | 0.00 | 93 | 1012.2 |
| 20260901191719 | 20 | 65 | 6.4 | 11.3 | 0.00 | 0.00 | 0.00 | 93 | 1012.3 |
| 20260901190951 | 20 | 107 | 9.7 | 11.3 | 0.00 | 0.00 | 0.00 | 93 | 1012.3 |
| 20260901190449 | 20 | 45 | 4.8 | 11.3 | 0.00 | 0.00 | 0.00 | 94 | 1012.4 |
| 20260901185950 | 20 | 35 | 3.2 | 11.3 | 0.00 | 0.00 | 0.00 | 93 | 1012.5 |
| 20260901185720 | 20 | 85 | 4.8 | 11.3 | 0.00 | 0.00 | 0.00 | 94 | 1012.5 |
| 20260901184950 | 20 | 62 | 6.4 | 9.7 | 0.00 | 0.00 | 0.00 | 93 | 1012.5 |
| 20260901184448 | 20 | 55 | 6.4 | 9.7 | 0.00 | 0.00 | 0.00 | 93 | 1012.5 |
| 20260901183949 | 20 | 52 | 3.2 | 8.0 | 0.00 | 0.00 | 0.00 | 93 | 1012.4 |
| 20260901183531 | 21 | 34 | 6.4 | 9.7 | 0.00 | 0.00 | 0.00 | 92 | 1012.4 |
| 20260901183027 | 21 | 14 | 3.2 | 9.7 | 0.00 | 0.00 | 0.00 | 93 | 1012.4 |
| 20260901182516 | 21 | 68 | 3.2 | 8.0 | 0.00 | 0.00 | 0.00 | 93 | 1012.5 |
| 20260901181949 | 21 | 75 | 3.2 | 9.7 | 0.00 | 0.00 | 0.00 | 93 | 1012.5 |
| 20260901181449 | 21 | 75 | 3.2 | 9.7 | 0.00 | 0.00 | 0.00 | 92 | 1012.4 |
| 20260901180947 | 21 | 220 | 1.6 | 9.7 | 0.00 | 0.00 | 0.00 | 93 | 1012.4 |
| 20260901180448 | 21 | 78 | 4.8 | 8.0 | 0.00 | 0.00 | 0.00 | 93 | 1012.4 |
| 20260901175946 | 21 | 18 | 3.2 | 11.3 | 0.00 | 0.00 | 0.00 | 92 | 1012.5 |
| 20260901175447 | 21 | 348 | 4.8 | 11.3 | 0.00 | 0.00 | 0.00 | 91 | 1012.4 |
| 20260901175215 | 21 | 93 | 3.2 | 9.7 | 0.00 | 0.00 | 0.00 | 92 | 1012.4 |
| 20260901174449 | 21 | 71 | 4.8 | 9.7 | 0.00 | 0.00 | 0.00 | 92 | 1012.3 |
| 20260901172946 | 21 | 72 | 3.2 | 8.0 | 0.00 | 0.00 | 0.00 | 91 | 1012.2 |
| 20260901172449 | 21 | 59 | 3.2 | 8.0 | 0.00 | 0.00 | 0.00 | 93 | 1012.0 |
| 20260901171946 | 21 | 62 | 6.4 | 11.3 | 0.00 | 0.00 | 0.00 | 93 | 1012.2 |
| 20260901171442 | 21 | 72 | 6.4 | 11.3 | 0.00 | 0.00 | 0.00 | 91 | 1012.2 |
| 20260901170939 | 21 | 76 | 8.0 | 11.3 | 0.00 | 0.00 | 0.00 | 90 | 1012.1 |
| 20260901170439 | 22 | 69 | 8.0 | 11.3 | 0.00 | 0.00 | 0.00 | 88 | 1012.0 |
| 20260901165939 | 23 | 52 | 3.2 | 8.0 | 0.00 | 0.00 | 0.00 | 90 | 1012.1 |
| 20260901165439 | 22 | 104 | 3.2 | 6.4 | 0.00 | 0.00 | 0.00 | 91 | 1012.0 |
| 20260901164941 | 21 | 86 | 3.2 | 6.4 | 0.00 | 0.00 | 0.00 | 93 | 1012.1 |
| 20260901164441 | 21 | 99 | 3.2 | 6.4 | 0.00 | 0.00 | 0.00 | 92 | 1012.1 |
| 20260901163936 | 21 | 71 | 3.2 | 8.0 | 0.00 | 0.00 | 0.00 | 92 | 1012.3 |
| 20260901163434 | 21 | 83 | 3.2 | 9.7 | 0.00 | 0.00 | 0.00 | 94 | 1012.3 |
| 20260901162934 | 21 | 80 | 4.8 | 9.7 | 0.00 | 0.00 | 0.00 | 92 | 1012.4 |
| 20260901162434 | 21 | 59 | 4.8 | 8.0 | 0.00 | 0.00 | 0.00 | 93 | 1012.5 |
| 20260901161933 | 21 | 61 | 6.4 | 8.0 | 0.00 | 0.00 | 0.00 | 93 | 1012.4 |
| 20260901161435 | 21 | 51 | 4.8 | 9.7 | 0.00 | 0.00 | 0.00 | 93 | 1012.5 |
| 20260901160933 | 21 | 85 | 4.8 | 9.7 | 0.00 | 0.00 | 0.00 | 93 | 1012.5 |
| 20260901160436 | 21 | 68 | 6.4 | 8.0 | 0.00 | 0.00 | 0.00 | 93 | 1012.5 |
| 20260901155932 | 20 | 49 | 3.2 | 6.4 | 0.00 | 0.00 | 0.00 | 94 | 1012.7 |
| 20260901155433 | 20 | 42 | 3.2 | 6.4 | 0.00 | 0.00 | 0.00 | 95 | 1012.7 |
| 20260901154933 | 20 | 59 | 4.8 | 6.4 | 0.00 | 0.00 | 0.00 | 95 | 1012.9 |
| 20260901154434 | 20 | 56 | 3.2 | 4.8 | 0.00 | 0.00 | 0.00 | 97 | 1013.0 |
| 20260901153934 | 19 | 37 | 3.2 | 6.4 | 0.00 | 0.00 | 0.00 | 95 | 1013.0 |
| 20260901153432 | 19 | 40 | 3.2 | 6.4 | 0.00 | 0.00 | 0.00 | 96 | 1013.0 |
| 20260901152934 | 19 | 35 | 3.2 | 6.4 | 0.00 | 0.00 | 0.00 | 96 | 1013.1 |
| 20260901152432 | 19 | 55 | 3.2 | 6.4 | 0.00 | 0.00 | 0.00 | 96 | 1013.1 |
| 20260901151932 | 19 | 28 | 1.6 | 6.4 | 0.00 | 0.00 | 0.00 | 96 | 1013.1 |
| 20260901151432 | 19 | 18 | 1.6 | 6.4 | 0.00 | 0.00 | 0.00 | 96 | 1013.2 |
| 20260901150930 | 19 | 12 | 3.2 | 6.4 | 0.00 | 0.00 | 0.00 | 96 | 1013.2 |
| 20260901150430 | 19 | 15 | 1.6 | 4.8 | 0.00 | 0.00 | 0.00 | 97 | 1013.1 |
| 20260901145929 | 19 | 24 | 1.6 | 6.4 | 0.00 | 0.00 | 0.00 | 97 | 1013.0 |
| 20260901145430 | 19 | 69 | 4.8 | 6.4 | 0.00 | 0.00 | 0.00 | 97 | 1012.8 |
| 20260901144925 | 19 | 78 | 1.6 | 6.4 | 0.00 | 0.03 | 0.00 | 97 | 1012.8 |
| 20260901144424 | 19 | 71 | 3.2 | 6.4 | 0.00 | 0.03 | 0.00 | 97 | 1012.7 |
| 20260901143925 | 19 | 79 | 1.6 | 6.4 | 0.00 | 0.03 | 0.00 | 97 | 1012.6 |
| 20260901143655 | 19 | 65 | 3.2 | 6.4 | 0.00 | 0.03 | 0.00 | 97 | 1012.8 |
| 20260901142920 | 19 | 19 | 1.6 | 4.8 | 0.00 | 0.03 | 0.00 | 97 | 1012.8 |
| 20260901142711 | 20 | 7 | 1.6 | 6.4 | 0.00 | 0.03 | 0.00 | 97 | 1012.8 |
| 20260901141922 | 19 | 42 | 1.6 | 6.4 | 0.00 | 0.03 | 0.00 | 98 | 1012.7 |
| 20260901141416 | 19 | 61 | 3.2 | 4.8 | 0.00 | 0.03 | 0.00 | 98 | 1012.5 |
| 20260901140917 | 19 | 78 | 3.2 | 4.8 | 0.00 | 0.03 | 0.00 | 98 | 1012.6 |
| 20260901140416 | 19 | 66 | 1.6 | 6.4 | 0.00 | 0.03 | 0.00 | 98 | 1012.6 |
| 20260901135916 | 19 | 82 | 3.2 | 6.4 | 0.00 | 0.05 | 0.00 | 98 | 1012.5 |
| 20260901135641 | 19 | 52 | 3.2 | 4.8 | 0.00 | 0.05 | 0.00 | 98 | 1012.6 |
| 20260901134914 | 19 | 41 | 1.6 | 3.2 | 0.00 | 0.05 | 0.00 | 98 | 1012.5 |
| 20260901134415 | 19 | 164 | 0.0 | 3.2 | 0.00 | 0.05 | 0.00 | 98 | 1012.4 |
| 20260901133914 | 19 | 164 | 0.0 | 3.2 | 0.00 | 0.05 | 0.00 | 98 | 1012.5 |
| 20260901133412 | 19 | 255 | 0.0 | 3.2 | 0.00 | 0.05 | 0.00 | 98 | 1012.5 |
| 20260901132913 | 19 | 265 | 1.6 | 4.8 | 0.00 | 0.05 | 0.00 | 98 | 1012.4 |
| 20260901132413 | 19 | 224 | 0.0 | 4.8 | 0.00 | 0.05 | 0.00 | 98 | 1012.3 |
| 20260901132140 | 18 | 210 | 1.6 | 4.8 | 0.00 | 0.05 | 0.00 | 98 | 1012.3 |
| 20260901131412 | 18 | 279 | 0.0 | 4.8 | 0.00 | 0.05 | 0.00 | 98 | 1012.3 |
| 20260901130910 | 18 | 299 | 0.0 | 4.8 | 0.00 | 0.05 | 0.00 | 98 | 1012.3 |
| 20260901130411 | 18 | 274 | 0.0 | 4.8 | 0.00 | 0.05 | 0.00 | 98 | 1012.3 |
| 20260901125911 | 18 | 279 | 0.0 | 1.6 | 0.00 | 0.05 | 0.00 | 98 | 1012.3 |
| 20260901125411 | 18 | 248 | 0.0 | 3.2 | 0.00 | 0.05 | 0.00 | 98 | 1012.3 |
| 20260901124907 | 18 | 236 | 1.6 | 3.2 | 0.00 | 0.05 | 0.00 | 98 | 1012.2 |